DW2270 Weather Reports


Display with metric or nautical units.
time (UTC)temp
F
wind
direction
speed
MPH
gust
MPH
rain 1hr
in
rain 24hr
in
rain mn
in
humidity
%
barometer
mb
20260831215930 94 106 2.0 9.0 0.00 0.00 0.00 54 1012.6
20260831214906 95 117 1.0 10.0 0.00 0.00 0.00 54 1012.7
20260831213841 95 114 1.0 10.0 0.00 0.00 0.00 54 1012.8
20260831211758 97 57 1.0 7.0 0.00 0.00 0.00 49 1012.8
20260831210759 98 53 0.0 6.0 0.00 0.00 0.00 46 1012.8
20260831205807 98 183 1.0 6.0 0.00 0.00 0.00 46 1012.8
20260831204737 98 128 0.0 5.0 0.00 0.00 0.00 46 1013.0
20260831203745 98 297 0.0 4.0 0.00 0.00 0.00 46 1013.1
20260831202734 98 126 0.0 4.0 0.00 0.00 0.00 46 1013.3
20260831201743 98 126 0.0 6.0 0.00 0.00 0.00 46 1013.5
20260831200713 98 128 0.0 6.0 0.00 0.00 0.00 46 1013.7
20260831195737 98 63 0.0 1.0 0.00 0.00 0.00 46 1013.7
20260831194710 99 63 0.0 3.0 0.00 0.00 0.00 47 1013.8
20260831193648 99 355 0.0 4.0 0.00 0.00 0.00 46 1014.0
20260831192701 99 146 1.0 4.0 0.00 0.00 0.00 47 1014.2
20260831191707 98 355 0.0 6.0 0.00 0.00 0.00 48 1014.3
20260831190652 97 134 1.0 6.0 0.00 0.00 0.00 48 1014.5
20260831185641 98 112 0.0 3.0 0.00 0.00 0.00 48 1014.6
20260831184704 97 148 0.0 2.0 0.00 0.00 0.00 49 1014.8
20260831183725 97 309 0.0 4.0 0.00 0.00 0.00 50 1014.9
20260831182708 97 260 1.0 6.0 0.00 0.00 0.00 51 1015.0
20260831181712 97 141 1.0 6.0 0.00 0.00 0.00 49 1015.2
20260831180641 97 326 0.0 4.0 0.00 0.00 0.00 49 1015.3
20260831175651 96 355 1.0 4.0 0.00 0.00 0.00 51 1015.4
20260831174631 95 115 0.0 4.0 0.00 0.00 0.00 52 1015.5
20260831171350 94 212 0.0 3.0 0.00 0.00 0.00 54 1015.9
20260831170338 94 96 0.0 3.0 0.00 0.00 0.00 54 1016.0
20260831165336 94 96 0.0 3.0 0.00 0.00 0.00 54 1016.1
20260831164346 94 347 0.0 2.0 0.00 0.00 0.00 54 1016.1
20260831154830 91 25 1.0 3.0 0.00 0.00 0.00 52 1016.4
20260831152704 88 77 0.0 2.0 0.00 0.00 0.00 32 1016.2
20260831150614 85 103 0.0 0.0 0.00 0.00 0.00 1 1016.1
20260831144511 83 103 0.0 3.0 0.00 0.00 0.00 1 1016.1
20260831143521 82 77 0.0 2.0 0.00 0.00 0.00 1 1016.0
20260831142513 81 77 0.0 2.0 0.00 0.00 0.00 1 1016.0
20260831140346 80 0 0.0 0.0 0.00 0.00 0.00 1 1016.0
20260831135404 80 0 0.0 0.0 0.00 0.00 0.00 1 1015.8
20260831134330 79 78 0.0 0.0 0.00 0.00 0.00 1 1015.8
20260831133305 78 78 0.0 0.0 0.00 0.00 0.00 1 1015.8
20260831132234 78 77 0.0 0.0 0.00 0.00 0.00 1 1015.6
20260831131226 77 77 0.0 0.0 0.00 0.00 0.00 1 1015.6
20260831122811 76 77 0.0 0.0 0.00 0.00 0.00 1 1015.2
20260831121814 76 77 0.0 0.0 0.00 0.00 0.00 1 1015.0
20260831115614 77 77 0.0 0.0 0.00 0.00 0.00 1 1014.7
20260831114634 77 77 0.0 0.0 0.00 0.00 0.00 1 1014.6
20260831113620 77 77 0.0 0.0 0.00 0.00 0.00 1 1014.6
20260831112611 77 77 0.0 0.0 0.00 0.00 0.00 1 1014.6
20260831105413 77 77 0.0 0.0 0.00 0.00 0.00 1 1014.5
20260831104427 77 77 0.0 0.0 0.00 0.00 0.00 1 1014.5
20260831103451 77 77 0.0 0.0 0.00 0.00 0.00 1 1014.4
20260831102448 77 77 0.0 0.0 0.00 0.00 0.00 1 1014.4
20260831101511 78 77 0.0 0.0 0.00 0.00 0.00 1 1014.5
20260831100509 78 77 0.0 0.0 0.00 0.00 0.00 1 1014.8
20260831095441 78 77 0.0 0.0 0.00 0.00 0.00 1 1014.6
20260831094412 78 77 0.0 0.0 0.00 0.00 0.00 1 1014.6
20260831092234 78 77 0.0 0.0 0.00 0.00 0.00 1 1014.4
20260831091259 78 77 0.0 0.0 0.00 0.00 0.00 1 1014.4
20260831090300 79 77 0.0 0.0 0.00 0.00 0.00 1 1014.4
20260831084129 79 77 0.0 0.0 0.00 0.00 0.00 1 1014.4
20260831083119 79 77 0.0 0.0 0.00 0.00 0.00 1 1014.5
20260831082058 79 77 0.0 0.0 0.00 0.00 0.00 1 1014.5
20260831081105 79 77 0.0 0.0 0.00 0.00 0.00 1 1014.5
20260831080039 80 77 0.0 0.0 0.00 0.00 0.00 1 1014.5
20260831073852 80 78 0.0 0.0 0.00 0.00 0.00 1 1014.5
20260831072855 80 82 0.0 0.0 0.00 0.00 0.00 1 1014.7
20260831071904 80 0 0.0 0.0 0.00 0.00 0.00 1 1014.7
20260831070836 81 0 0.0 0.0 0.00 0.00 0.00 1 1014.7
20260831065826 81 0 0.0 0.0 0.00 0.00 0.00 1 1014.7
20260831064816 81 0 0.0 0.0 0.00 0.00 0.00 1 1014.7
20260831063753 81 0 0.0 0.0 0.00 0.00 0.00 1 1014.6
20260831062720 81 0 0.0 0.0 0.00 0.00 0.00 1 1014.7
20260831061657 81 0 0.0 0.0 0.00 0.00 0.00 1 1014.8
20260831060657 82 0 0.0 0.0 0.00 0.00 0.00 1 1014.7
20260831055721 82 0 0.0 0.0 0.00 0.00 0.00 1 1014.8
20260831054714 82 0 0.0 0.0 0.00 0.00 0.00 1 1014.7
20260831053735 83 0 0.0 0.0 0.00 0.00 0.00 3 1014.7
20260831052740 83 0 0.0 0.0 0.00 0.00 0.00 6 1014.6
20260831051714 83 0 0.0 0.0 0.00 0.00 0.00 10 1014.5
20260831045617 84 0 0.0 0.0 0.00 0.00 0.00 14 1014.5
20260831044641 84 0 0.0 0.0 0.00 0.00 0.00 16 1014.6
20260831043646 84 0 0.0 0.0 0.00 0.00 0.00 18 1014.4
20260831042648 85 0 0.0 0.0 0.00 0.00 0.00 20 1014.3
20260831040440 85 0 0.0 0.0 0.00 0.00 0.00 28 1014.2
20260831035421 85 0 0.0 1.0 0.00 0.00 0.00 32 1014.1
20260831034421 86 78 0.0 1.0 0.00 0.00 0.00 36 1014.0
20260831033419 86 74 0.0 0.0 0.00 0.00 0.00 41 1013.8
20260831032417 86 74 0.0 0.0 0.00 0.00 0.00 43 1013.8
20260831031346 86 74 0.0 3.0 0.00 0.00 0.00 48 1013.7
20260831025250 87 55 0.0 1.0 0.00 0.00 0.00 53 1013.4
20260831024226 87 55 0.0 1.0 0.00 0.00 0.00 54 1013.3
20260831023225 88 54 0.0 2.0 0.00 0.00 0.00 55 1013.1
20260831022230 88 54 0.0 0.0 0.00 0.00 0.00 55 1013.0
20260831021230 89 54 0.0 2.0 0.00 0.00 0.00 54 1012.9
20260831020253 89 115 0.0 0.0 0.00 0.00 0.00 53 1012.7
20260831015234 89 115 0.0 3.0 0.00 0.00 0.00 52 1012.7
20260831014248 90 103 0.0 3.0 0.00 0.00 0.00 53 1012.5
20260831013247 90 103 0.0 5.0 0.00 0.00 0.00 52 1012.6
20260831012259 91 87 0.0 6.0 0.00 0.00 0.00 52 1012.5
20260831011248 91 113 1.0 6.0 0.00 0.00 0.00 51 1012.5
20260831010216 92 88 0.0 5.0 0.00 0.00 0.00 51 1012.4
20260831005229 92 78 1.0 3.0 0.00 0.00 0.00 50 1012.4
20260831004248 93 115 0.0 4.0 0.00 0.00 0.00 50 1012.2
20260831003308 93 94 0.0 4.0 0.00 0.00 0.00 50 1012.2
20260831002244 94 88 0.0 2.0 0.00 0.00 0.00 50 1012.2
20260831001306 94 88 1.0 5.0 0.00 0.00 0.00 49 1012.1
20260831000238 95 111 0.0 7.0 0.00 0.00 0.00 48 1012.0
20260830234114 96 129 0.0 6.0 0.00 0.00 0.00 46 1012.1
20260830233105 97 157 0.0 7.0 0.00 0.00 0.00 45 1012.0
20260830232114 97 118 1.0 7.0 0.00 0.00 0.00 44 1011.9
20260830231138 98 111 1.0 6.0 0.00 0.00 0.00 43 1012.0
20260830230149 99 155 1.0 5.0 0.00 0.00 0.00 42 1012.0
20260830224011 99 90 1.0 6.0 0.00 0.00 0.00 41 1012.1